SAS81A ENVA-ENGM

Flight info

Callsign SAS81A
Flight time 0h 40m
Altitude 29000
Route UTUNA DCT TUTBI DCT BELGU
Aircraft A320/M-SDE3FGHIJ1RWXYZ/ALB1

Departure

Time 2026-05-04 12:23
Airport Trondheim Airport, Værnes (ENVA)

Arrival

Time 2026-05-04 13:03
Airport Oslo-Gardermoen International Airport (ENGM)
Time Latitude Longitude Altitude Speed Heading
2026-05-04 11:46 63.45498 10.91738 32 ft 0 kts 180°
2026-05-04 12:12 63.45503 10.91738 31 ft 2 kts 181°
2026-05-04 12:12 63.45518 10.91738 31 ft 2 kts 180°
2026-05-04 12:13 63.45530 10.91739 31 ft 0 kts 180°
2026-05-04 12:14 63.45531 10.91739 31 ft 0 kts 181°
2026-05-04 12:16 63.45530 10.91740 32 ft 0 kts 170°
2026-05-04 12:16 63.45528 10.91750 32 ft 1 kts 89°
2026-05-04 12:16 63.45542 10.91752 32 ft 3 kts 349°
2026-05-04 12:16 63.45586 10.91758 32 ft 10 kts 46°
2026-05-04 12:17 63.45596 10.91937 33 ft 12 kts 90°
2026-05-04 12:17 63.45595 10.92135 35 ft 12 kts 91°
2026-05-04 12:17 63.45593 10.92339 36 ft 13 kts 91°
2026-05-04 12:17 63.45594 10.92557 37 ft 14 kts 89°
2026-05-04 12:18 63.45594 10.92779 39 ft 14 kts 90°
2026-05-04 12:18 63.45594 10.93008 41 ft 14 kts 90°
2026-05-04 12:18 63.45593 10.93236 43 ft 14 kts 90°
2026-05-04 12:18 63.45593 10.93459 45 ft 14 kts 89°
2026-05-04 12:19 63.45592 10.93677 48 ft 13 kts 90°
2026-05-04 12:19 63.45615 10.93875 50 ft 13 kts 54°
2026-05-04 12:19 63.45647 10.93948 51 ft 2 kts 44°
2026-05-04 12:19 63.45654 10.93964 51 ft 0 kts 43°
2026-05-04 12:21 63.45669 10.93995 51 ft 4 kts 44°
2026-05-04 12:21 63.45696 10.94054 52 ft 6 kts 44°
2026-05-04 12:21 63.45741 10.94105 53 ft 7 kts 349°
2026-05-04 12:22 63.45756 10.94023 52 ft 0 kts 273°
2026-05-04 12:22 63.45757 10.94015 51 ft 0 kts 273°
2026-05-04 12:22 63.45757 10.94004 51 ft 6 kts 273°
2026-05-04 12:22 63.45758 10.93344 43 ft 76 kts 270°
2026-05-04 12:23 63.45761 10.91693 31 ft 134 kts 270°
2026-05-04 12:23 63.45763 10.89502 429 ft 148 kts 269°
2026-05-04 12:23 63.45732 10.87129 968 ft 158 kts 268°
2026-05-04 12:23 63.45728 10.84756 1814 ft 152 kts 272°
2026-05-04 12:24 63.45772 10.82541 2568 ft 142 kts 270°
2026-05-04 12:24 63.45424 10.80397 2895 ft 165 kts 233°
2026-05-04 12:24 63.44325 10.79095 3219 ft 199 kts 197°
2026-05-04 12:24 63.42851 10.79333 3584 ft 224 kts 178°
2026-05-04 12:25 63.41246 10.79862 3894 ft 247 kts 179°
2026-05-04 12:25 63.39496 10.80398 4357 ft 264 kts 179°
2026-05-04 12:25 63.37648 10.80962 5058 ft 273 kts 179°
2026-05-04 12:25 63.35781 10.81535 5896 ft 276 kts 179°
2026-05-04 12:26 63.33879 10.82120 6760 ft 278 kts 179°
2026-05-04 12:26 63.31964 10.82700 7622 ft 280 kts 178°
2026-05-04 12:26 63.30067 10.83270 8489 ft 281 kts 178°
2026-05-04 12:26 63.28118 10.83855 9322 ft 283 kts 178°
2026-05-04 12:27 63.26183 10.84437 10104 ft 286 kts 178°
2026-05-04 12:27 63.24163 10.85030 10569 ft 301 kts 178°
2026-05-04 12:27 63.22054 10.85651 11022 ft 314 kts 178°
2026-05-04 12:27 63.19886 10.86298 11722 ft 318 kts 178°
2026-05-04 12:28 63.17691 10.86954 12481 ft 319 kts 178°
2026-05-04 12:28 63.15508 10.87608 13184 ft 322 kts 178°
2026-05-04 12:28 63.13276 10.87893 13869 ft 320 kts 187°
2026-05-04 12:28 63.11081 10.87303 14514 ft 319 kts 197°
2026-05-04 12:29 63.08955 10.86095 15136 ft 320 kts 201°
2026-05-04 12:29 63.06817 10.84767 15784 ft 322 kts 201°
2026-05-04 12:29 63.04668 10.83422 16425 ft 324 kts 201°
2026-05-04 12:29 63.02500 10.82078 17057 ft 326 kts 201°
2026-05-04 12:30 63.00312 10.80729 17646 ft 329 kts 202°
2026-05-04 12:30 62.98120 10.79384 18205 ft 331 kts 202°
2026-05-04 12:30 62.95881 10.78019 18770 ft 334 kts 202°
2026-05-04 12:30 62.93640 10.76655 19313 ft 337 kts 202°
2026-05-04 12:31 62.91397 10.75291 19859 ft 339 kts 202°
2026-05-04 12:31 62.89127 10.73911 20421 ft 341 kts 202°
2026-05-04 12:31 62.86857 10.72538 20931 ft 343 kts 202°
2026-05-04 12:31 62.84537 10.71291 21392 ft 348 kts 198°
2026-05-04 12:32 62.82116 10.70467 21863 ft 355 kts 193°
2026-05-04 12:32 62.77121 10.69926 22772 ft 363 kts 189°
2026-05-04 12:32 62.74577 10.69754 23207 ft 366 kts 189°
2026-05-04 12:33 62.72053 10.69584 23644 ft 368 kts 189°
2026-05-04 12:33 62.69494 10.69413 24053 ft 370 kts 189°
2026-05-04 12:33 62.66925 10.69239 24451 ft 373 kts 189°
2026-05-04 12:33 62.64333 10.69062 24891 ft 374 kts 189°
2026-05-04 12:34 62.61761 10.68890 25333 ft 372 kts 189°
2026-05-04 12:34 62.59192 10.68722 25770 ft 370 kts 189°
2026-05-04 12:34 62.56619 10.68549 26161 ft 370 kts 189°
2026-05-04 12:34 62.54065 10.68375 26559 ft 368 kts 189°
2026-05-04 12:35 62.51515 10.68202 26927 ft 368 kts 190°
2026-05-04 12:35 62.48957 10.68029 27254 ft 369 kts 189°
2026-05-04 12:35 62.46389 10.67854 27552 ft 370 kts 190°
2026-05-04 12:35 62.43806 10.67675 27856 ft 371 kts 189°
2026-05-04 12:36 62.41228 10.67502 28153 ft 373 kts 190°
2026-05-04 12:36 62.38666 10.67325 28440 ft 374 kts 190°
2026-05-04 12:36 62.36062 10.67149 28596 ft 375 kts 190°
2026-05-04 12:37 62.30861 10.66800 28603 ft 377 kts 190°
2026-05-04 12:37 62.25621 10.66447 28611 ft 376 kts 190°
2026-05-04 12:38 62.20415 10.66098 28609 ft 376 kts 190°
2026-05-04 12:38 62.15190 10.65751 28608 ft 376 kts 189°
2026-05-04 12:39 62.09974 10.65414 28611 ft 376 kts 190°
2026-05-04 12:39 62.04752 10.65067 28594 ft 376 kts 190°
2026-05-04 12:40 61.99547 10.64724 28590 ft 375 kts 190°
2026-05-04 12:40 61.94333 10.64385 28603 ft 375 kts 190°
2026-05-04 12:41 61.89121 10.64045 28611 ft 375 kts 191°
2026-05-04 12:41 61.83908 10.63705 28599 ft 376 kts 191°
2026-05-04 12:42 61.78701 10.63371 28427 ft 375 kts 191°
2026-05-04 12:42 61.76121 10.63206 28170 ft 373 kts 191°
2026-05-04 12:42 61.73539 10.63043 27806 ft 373 kts 191°
2026-05-04 12:42 61.70921 10.62872 27294 ft 374 kts 191°
2026-05-04 12:43 61.68333 10.62697 26728 ft 377 kts 191°
2026-05-04 12:43 61.65720 10.62527 26074 ft 379 kts 191°
2026-05-04 12:43 61.63064 10.62358 25416 ft 380 kts 191°
2026-05-04 12:43 61.60433 10.62189 24728 ft 382 kts 191°
2026-05-04 12:44 61.57785 10.62022 24108 ft 380 kts 191°
2026-05-04 12:44 61.55172 10.61862 23677 ft 374 kts 191°
2026-05-04 12:44 61.52586 10.61704 23195 ft 370 kts 192°
2026-05-04 12:44 61.50064 10.61548 22722 ft 366 kts 192°
2026-05-04 12:45 61.47541 10.61393 22289 ft 361 kts 192°
2026-05-04 12:45 61.45051 10.61232 21832 ft 357 kts 192°
2026-05-04 12:45 61.42580 10.61076 21392 ft 353 kts 192°
2026-05-04 12:45 61.40127 10.60916 20842 ft 353 kts 192°
2026-05-04 12:46 61.37691 10.60753 20241 ft 354 kts 192°
2026-05-04 12:46 61.35262 10.60603 19616 ft 346 kts 192°
2026-05-04 12:46 61.32905 10.60469 19068 ft 335 kts 192°
2026-05-04 12:46 61.30621 10.60328 18611 ft 328 kts 192°
2026-05-04 12:47 61.28341 10.60179 18164 ft 323 kts 192°
2026-05-04 12:47 61.26154 10.60042 17868 ft 311 kts 192°
2026-05-04 12:47 61.23996 10.59911 17781 ft 310 kts 192°
2026-05-04 12:47 61.21824 10.60054 17618 ft 319 kts 184°
2026-05-04 12:48 61.19633 10.61007 17263 ft 330 kts 172°
2026-05-04 12:48 61.17446 10.62645 16810 ft 334 kts 168°
2026-05-04 12:48 61.15306 10.64402 16431 ft 332 kts 167°
2026-05-04 12:48 61.13167 10.66180 16050 ft 330 kts 167°
2026-05-04 12:49 61.11058 10.67917 15700 ft 326 kts 167°
2026-05-04 12:49 61.08957 10.69630 15306 ft 325 kts 167°
2026-05-04 12:49 61.06875 10.71317 14920 ft 323 kts 166°
2026-05-04 12:49 61.04781 10.73012 14565 ft 320 kts 166°
2026-05-04 12:50 61.02730 10.74660 14197 ft 319 kts 166°
2026-05-04 12:50 61.00661 10.76314 13829 ft 317 kts 165°
2026-05-04 12:50 60.98612 10.77953 13458 ft 316 kts 165°
2026-05-04 12:50 60.96591 10.79571 13100 ft 314 kts 165°
2026-05-04 12:51 60.94551 10.81200 12755 ft 311 kts 165°
2026-05-04 12:51 60.92545 10.82806 12404 ft 310 kts 165°
2026-05-04 12:51 60.90548 10.84393 12055 ft 308 kts 164°
2026-05-04 12:51 60.88570 10.85968 11719 ft 305 kts 164°
2026-05-04 12:52 60.86612 10.87527 11630 ft 301 kts 164°
2026-05-04 12:52 60.84656 10.89076 11619 ft 302 kts 164°
2026-05-04 12:52 60.82709 10.90620 11441 ft 297 kts 164°
2026-05-04 12:52 60.80811 10.92117 11077 ft 296 kts 164°
2026-05-04 12:53 60.78875 10.93607 10709 ft 295 kts 165°
2026-05-04 12:53 60.76936 10.94972 10346 ft 294 kts 166°
2026-05-04 12:53 60.75006 10.96300 9981 ft 293 kts 166°
2026-05-04 12:53 60.73069 10.97634 9619 ft 293 kts 165°
2026-05-04 12:54 60.71161 10.98958 9266 ft 292 kts 165°
2026-05-04 12:54 60.69231 11.00304 8907 ft 292 kts 165°
2026-05-04 12:54 60.67338 11.01627 8553 ft 290 kts 165°
2026-05-04 12:54 60.65471 11.02939 8196 ft 279 kts 165°
2026-05-04 12:55 60.63668 11.04205 7836 ft 267 kts 165°
2026-05-04 12:55 60.61932 11.05419 7482 ft 265 kts 165°
2026-05-04 12:55 60.60202 11.06621 7129 ft 265 kts 165°
2026-05-04 12:55 60.58461 11.07833 6923 ft 259 kts 165°
2026-05-04 12:56 60.56818 11.08984 6916 ft 247 kts 165°
2026-05-04 12:56 60.55211 11.10103 6773 ft 243 kts 165°
2026-05-04 12:56 60.53608 11.11213 6432 ft 244 kts 165°
2026-05-04 12:56 60.52017 11.12312 6137 ft 244 kts 165°
2026-05-04 12:57 60.50418 11.13421 5867 ft 242 kts 165°
2026-05-04 12:57 60.48836 11.14513 5584 ft 241 kts 165°
2026-05-04 12:57 60.47259 11.15605 5297 ft 241 kts 165°
2026-05-04 12:57 60.45681 11.16699 5015 ft 239 kts 165°
2026-05-04 12:58 60.44124 11.17772 4616 ft 236 kts 165°
2026-05-04 12:58 60.42577 11.18840 4336 ft 235 kts 165°
2026-05-04 12:58 60.41021 11.19850 4132 ft 229 kts 172°
2026-05-04 12:58 60.39495 11.19823 3963 ft 215 kts 198°
2026-05-04 12:59 60.38123 11.18967 3901 ft 203 kts 204°
2026-05-04 12:59 60.36803 11.18039 3724 ft 200 kts 202°
2026-05-04 12:59 60.35493 11.17186 3531 ft 195 kts 201°
2026-05-04 12:59 60.34209 11.16414 3284 ft 191 kts 201°
2026-05-04 13:00 60.32952 11.15687 3002 ft 185 kts 201°
2026-05-04 13:00 60.31753 11.15007 2724 ft 174 kts 200°
2026-05-04 13:00 60.30622 11.14363 2475 ft 165 kts 200°
2026-05-04 13:00 60.29565 11.13758 2253 ft 156 kts 200°
2026-05-04 13:01 60.28558 11.13182 2072 ft 145 kts 201°
2026-05-04 13:01 60.27601 11.12630 1890 ft 141 kts 200°
2026-05-04 13:01 60.26666 11.12085 1758 ft 139 kts 199°
2026-05-04 13:01 60.25741 11.11547 1529 ft 140 kts 200°
2026-05-04 13:02 60.24815 11.11023 1325 ft 141 kts 198°
2026-05-04 13:02 60.23877 11.10458 1189 ft 138 kts 200°
2026-05-04 13:02 60.22951 11.09912 974 ft 139 kts 198°
2026-05-04 13:02 60.22029 11.09399 822 ft 134 kts 197°
2026-05-04 13:03 60.21153 11.08903 697 ft 127 kts 199°
2026-05-04 13:03 60.20396 11.08467 676 ft 92 kts 197°
2026-05-04 13:03 60.19934 11.08197 674 ft 52 kts 195°
2026-05-04 13:03 60.19701 11.08110 673 ft 21 kts 176°
2026-05-04 13:04 60.19604 11.08163 673 ft 10 kts 141°
2026-05-04 13:04 60.19571 11.08296 673 ft 10 kts 96°
2026-05-04 13:04 60.19608 11.08406 674 ft 10 kts 19°
2026-05-04 13:04 60.19678 11.08447 675 ft 10 kts 15°
2026-05-04 13:05 60.19746 11.08486 675 ft 10 kts 16°
2026-05-04 13:05 60.19814 11.08525 675 ft 10 kts 15°
2026-05-04 13:05 60.19867 11.08607 676 ft 10 kts 84°
2026-05-04 13:05 60.19822 11.08690 676 ft 10 kts 176°
2026-05-04 13:06 60.19772 11.08776 677 ft 10 kts 108°
2026-05-04 13:06 60.19750 11.08914 677 ft 10 kts 104°
2026-05-04 13:06 60.19732 11.09053 678 ft 10 kts 108°
2026-05-04 13:06 60.19711 11.09193 678 ft 10 kts 105°
2026-05-04 13:07 60.19690 11.09339 679 ft 11 kts 106°
2026-05-04 13:07 60.19675 11.09444 679 ft 3 kts 105°
2026-05-04 13:07 60.19661 11.09478 679 ft 3 kts 168°
2026-05-04 13:07 60.19629 11.09467 678 ft 5 kts 193°
2026-05-04 13:08 60.19590 11.09442 678 ft 3 kts 197°
2026-05-04 13:08 60.19569 11.09430 678 ft 2 kts 196°
2026-05-04 13:08 60.19567 11.09428 678 ft 0 kts 196°